Wetterdaten: aktuell Freitag, 15.11.2019 05:30
Datum Zeit Temp. A. Feuchte A. Luftdruck Regen Wind Richtung Richtung Sonnenschein UV Solar Taupunkt Windchill Windben Empfang
15.11.2019 05:30 4,3 C 93 % 1006,8 hPa 0,0 l/m 11,3 km/h (2 Bft) S-SO 157 0 min 0,0 UV-I 0 W/m 3,3 C 0,4 C 35,4 km/h (5 Bft) 100,00 %
15.11.2019 05:25 3,8 C 93 % 1007,1 hPa 0,0 l/m 9,7 km/h (2 Bft) SO 135 0 min 0,0 UV-I 0 W/m 2,8 C 1,0 C 19,3 km/h (3 Bft) 100,00 %
15.11.2019 05:20 3,8 C 93 % 1007,4 hPa 0,0 l/m 8,0 km/h (2 Bft) SO 135 0 min 0,0 UV-I 0 W/m 2,8 C 2,3 C 16,1 km/h (3 Bft) 100,00 %
15.11.2019 05:15 3,9 C 92 % 1007,4 hPa 0,0 l/m 12,9 km/h (3 Bft) SO 135 0 min 0,0 UV-I 0 W/m 2,7 C -1,1 C 20,9 km/h (4 Bft) 100,00 %
15.11.2019 05:10 4,1 C 92 % 1007,5 hPa 0,0 l/m 12,9 km/h (3 Bft) SO 135 0 min 0,0 UV-I 0 W/m 2,9 C -0,8 C 20,9 km/h (4 Bft) 100,00 %
15.11.2019 05:05 3,9 C 93 % 1007,7 hPa 0,0 l/m 12,9 km/h (3 Bft) SO 135 0 min 0,0 UV-I 0 W/m 2,9 C -1,1 C 27,4 km/h (4 Bft) 100,00 %
15.11.2019 05:00 3,8 C 93 % 1007,7 hPa 0,0 l/m 11,3 km/h (2 Bft) SO 135 0 min 0,0 UV-I 0 W/m 2,8 C -0,2 C 19,3 km/h (3 Bft) 100,00 %
15.11.2019 04:55 3,6 C 93 % 1007,6 hPa 0,0 l/m 11,3 km/h (2 Bft) SO 135 0 min 0,0 UV-I 0 W/m 2,6 C -0,4 C 19,3 km/h (3 Bft) 100,00 %
15.11.2019 04:50 3,6 C 92 % 1007,7 hPa 0,0 l/m 12,9 km/h (3 Bft) SO 135 0 min 0,0 UV-I 0 W/m 2,4 C -1,4 C 20,9 km/h (4 Bft) 100,00 %
15.11.2019 04:45 3,6 C 92 % 1007,7 hPa 0,0 l/m 14,5 km/h (3 Bft) SO 135 0 min 0,0 UV-I 0 W/m 2,4 C -2,3 C 24,1 km/h (4 Bft) 100,00 %
15.11.2019 04:40 3,6 C 91 % 1007,7 hPa 0,0 l/m 12,9 km/h (3 Bft) SO 135 0 min 0,0 UV-I 0 W/m 2,3 C -1,4 C 20,9 km/h (4 Bft) 100,00 %
15.11.2019 04:35 3,6 C 91 % 1007,6 hPa 0,0 l/m 12,9 km/h (3 Bft) SO 135 0 min 0,0 UV-I 0 W/m 2,3 C -1,4 C 20,9 km/h (4 Bft) 100,00 %
15.11.2019 04:30 3,5 C 91 % 1007,4 hPa 0,0 l/m 12,9 km/h (3 Bft) SO 135 0 min 0,0 UV-I 0 W/m 2,2 C -1,5 C 20,9 km/h (4 Bft) 100,00 %
15.11.2019 04:25 3,6 C 91 % 1007,4 hPa 0,0 l/m 12,9 km/h (3 Bft) SO 135 0 min 0,0 UV-I 0 W/m 2,3 C -1,4 C 22,5 km/h (4 Bft) 100,00 %
15.11.2019 04:20 3,6 C 90 % 1007,3 hPa 0,0 l/m 11,3 km/h (2 Bft) SO 135 0 min 0,0 UV-I 0 W/m 2,1 C -0,4 C 19,3 km/h (3 Bft) 100,00 %
15.11.2019 04:15 3,7 C 90 % 1007,6 hPa 0,0 l/m 12,9 km/h (3 Bft) O-SO 112 0 min 0,0 UV-I 0 W/m 2,2 C -1,3 C 20,9 km/h (4 Bft) 100,00 %
15.11.2019 04:10 3,6 C 90 % 1007,6 hPa 0,0 l/m 9,7 km/h (2 Bft) O-SO 112 0 min 0,0 UV-I 0 W/m 2,1 C 0,8 C 16,1 km/h (3 Bft) 100,00 %
15.11.2019 04:05 3,5 C 90 % 1007,6 hPa 0,0 l/m 9,7 km/h (2 Bft) SO 135 0 min 0,0 UV-I 0 W/m 2,0 C 0,6 C 20,9 km/h (4 Bft) 100,00 %
15.11.2019 04:00 3,5 C 90 % 1007,7 hPa 0,0 l/m 11,3 km/h (2 Bft) SO 135 0 min 0,0 UV-I 0 W/m 2,0 C -0,5 C 20,9 km/h (4 Bft) 100,00 %
15.11.2019 03:55 3,5 C 90 % 1007,6 hPa 0,0 l/m 9,7 km/h (2 Bft) O-SO 112 0 min 0,0 UV-I 0 W/m 2,0 C 0,6 C 16,1 km/h (3 Bft) 100,00 %
15.11.2019 03:50 3,6 C 90 % 1007,7 hPa 0,0 l/m 9,7 km/h (2 Bft) SO 135 0 min 0,0 UV-I 0 W/m 2,1 C 0,8 C 17,7 km/h (3 Bft) 100,00 %
15.11.2019 03:45 3,5 C 90 % 1007,6 hPa 0,0 l/m 9,7 km/h (2 Bft) O-SO 112 0 min 0,0 UV-I 0 W/m 2,0 C 0,6 C 20,9 km/h (4 Bft) 100,00 %
15.11.2019 03:40 3,6 C 89 % 1007,7 hPa 0,0 l/m 9,7 km/h (2 Bft) O-SO 112 0 min 0,0 UV-I 0 W/m 2,0 C 0,8 C 20,9 km/h (4 Bft) 100,00 %
15.11.2019 03:35 3,8 C 88 % 1007,6 hPa 0,0 l/m 16,1 km/h (3 Bft) O-SO 112 0 min 0,0 UV-I 0 W/m 2,0 C -2,9 C 30,6 km/h (5 Bft) 100,00 %
15.11.2019 03:30 3,8 C 88 % 1007,7 hPa 0,0 l/m 12,9 km/h (3 Bft) O-SO 112 0 min 0,0 UV-I 0 W/m 2,0 C -1,2 C 20,9 km/h (4 Bft) 100,00 %
15.11.2019 03:25 3,8 C 88 % 1007,9 hPa 0,0 l/m 9,7 km/h (2 Bft) SO 135 0 min 0,0 UV-I 0 W/m 2,0 C 1,0 C 24,1 km/h (4 Bft) 100,00 %
15.11.2019 03:20 4,2 C 86 % 1007,8 hPa 0,0 l/m 9,7 km/h (2 Bft) SO 135 0 min 0,0 UV-I 0 W/m 2,1 C 1,4 C 19,3 km/h (3 Bft) 100,00 %
15.11.2019 03:15 4,3 C 86 % 1007,8 hPa 0,0 l/m 11,3 km/h (2 Bft) O-SO 112 0 min 0,0 UV-I 0 W/m 2,2 C 0,4 C 19,3 km/h (3 Bft) 100,00 %
15.11.2019 03:10 4,4 C 86 % 1007,9 hPa 0,0 l/m 9,7 km/h (2 Bft) SO 135 0 min 0,0 UV-I 0 W/m 2,3 C 1,6 C 27,4 km/h (4 Bft) 100,00 %
15.11.2019 03:05 4,3 C 86 % 1008,0 hPa 0,0 l/m 9,7 km/h (2 Bft) SO 135 0 min 0,0 UV-I 0 W/m 2,2 C 1,5 C 19,3 km/h (3 Bft) 100,00 %
15.11.2019 03:00 4,3 C 87 % 1008,1 hPa 0,0 l/m 11,3 km/h (2 Bft) SO 135 0 min 0,0 UV-I 0 W/m 2,3 C 0,4 C 22,5 km/h (4 Bft) 100,00 %
15.11.2019 02:55 3,8 C 88 % 1008,1 hPa 0,0 l/m 11,3 km/h (2 Bft) O-SO 112 0 min 0,0 UV-I 0 W/m 2,0 C -0,2 C 17,7 km/h (3 Bft) 100,00 %
15.11.2019 02:50 3,8 C 87 % 1008,1 hPa 0,0 l/m 9,7 km/h (2 Bft) SO 135 0 min 0,0 UV-I 0 W/m 1,8 C 1,0 C 17,7 km/h (3 Bft) 100,00 %
15.11.2019 02:45 3,9 C 87 % 1008,1 hPa 0,0 l/m 9,7 km/h (2 Bft) SO 135 0 min 0,0 UV-I 0 W/m 1,9 C 1,1 C 19,3 km/h (3 Bft) 100,00 %
15.11.2019 02:40 3,8 C 88 % 1008,2 hPa 0,0 l/m 11,3 km/h (2 Bft) SO 135 0 min 0,0 UV-I 0 W/m 2,0 C -0,2 C 22,5 km/h (4 Bft) 100,00 %
15.11.2019 02:35 3,6 C 89 % 1008,3 hPa 0,0 l/m 9,7 km/h (2 Bft) SO 135 0 min 0,0 UV-I 0 W/m 2,0 C 0,8 C 16,1 km/h (3 Bft) 100,00 %
15.11.2019 02:30 3,7 C 88 % 1008,3 hPa 0,0 l/m 9,7 km/h (2 Bft) SO 135 0 min 0,0 UV-I 0 W/m 1,9 C 0,9 C 14,5 km/h (3 Bft) 100,00 %
15.11.2019 02:25 3,6 C 88 % 1008,3 hPa 0,0 l/m 9,7 km/h (2 Bft) SO 135 0 min 0,0 UV-I 0 W/m 1,8 C 0,8 C 17,7 km/h (3 Bft) 100,00 %
15.11.2019 02:20 3,6 C 88 % 1008,3 hPa 0,0 l/m 11,3 km/h (2 Bft) SO 135 0 min 0,0 UV-I 0 W/m 1,8 C -0,4 C 20,9 km/h (4 Bft) 100,00 %
15.11.2019 02:15 3,5 C 88 % 1008,2 hPa 0,0 l/m 9,7 km/h (2 Bft) SO 135 0 min 0,0 UV-I 0 W/m 1,7 C 0,6 C 19,3 km/h (3 Bft) 100,00 %
15.11.2019 02:10 3,4 C 89 % 1008,2 hPa 0,0 l/m 11,3 km/h (2 Bft) SO 135 0 min 0,0 UV-I 0 W/m 1,8 C -0,6 C 19,3 km/h (3 Bft) 100,00 %
15.11.2019 02:05 3,3 C 88 % 1008,3 hPa 0,0 l/m 11,3 km/h (2 Bft) SO 135 0 min 0,0 UV-I 0 W/m 1,5 C -0,7 C 24,1 km/h (4 Bft) 100,00 %
15.11.2019 02:00 3,4 C 88 % 1008,5 hPa 0,0 l/m 9,7 km/h (2 Bft) SO 135 0 min 0,0 UV-I 0 W/m 1,6 C 0,5 C 19,3 km/h (3 Bft) 100,00 %
15.11.2019 01:55 3,4 C 87 % 1008,5 hPa 0,0 l/m 9,7 km/h (2 Bft) O-SO 112 0 min 0,0 UV-I 0 W/m 1,4 C 0,5 C 19,3 km/h (3 Bft) 100,00 %
15.11.2019 01:50 3,8 C 86 % 1008,7 hPa 0,0 l/m 8,0 km/h (2 Bft) SO 135 0 min 0,0 UV-I 0 W/m 1,7 C 2,3 C 14,5 km/h (3 Bft) 100,00 %
15.11.2019 01:45 3,9 C 85 % 1008,7 hPa 0,0 l/m 8,0 km/h (2 Bft) SO 135 0 min 0,0 UV-I 0 W/m 1,6 C 2,4 C 17,7 km/h (3 Bft) 100,00 %
15.11.2019 01:40 4,2 C 84 % 1008,6 hPa 0,0 l/m 8,0 km/h (2 Bft) SO 135 0 min 0,0 UV-I 0 W/m 1,7 C 2,8 C 16,1 km/h (3 Bft) 100,00 %
15.11.2019 01:35 4,1 C 85 % 1008,7 hPa 0,0 l/m 11,3 km/h (2 Bft) SO 135 0 min 0,0 UV-I 0 W/m 1,8 C 0,2 C 19,3 km/h (3 Bft) 100,00 %
15.11.2019 01:30 4,1 C 84 % 1008,6 hPa 0,0 l/m 9,7 km/h (2 Bft) SO 135 0 min 0,0 UV-I 0 W/m 1,6 C 1,3 C 17,7 km/h (3 Bft) 100,00 %
15.11.2019 01:25 4,0 C 84 % 1008,6 hPa 0,0 l/m 6,4 km/h (2 Bft) SO 135 0 min 0,0 UV-I 0 W/m 1,5 C 4,0 C 12,9 km/h (3 Bft) 100,00 %
15.11.2019 01:20 3,9 C 84 % 1008,7 hPa 0,0 l/m 6,4 km/h (2 Bft) SO 135 0 min 0,0 UV-I 0 W/m 1,4 C 3,9 C 14,5 km/h (3 Bft) 100,00 %
15.11.2019 01:15 3,9 C 84 % 1008,6 hPa 0,0 l/m 8,0 km/h (2 Bft) SO 135 0 min 0,0 UV-I 0 W/m 1,4 C 2,4 C 14,5 km/h (3 Bft) 100,00 %
15.11.2019 01:10 3,9 C 84 % 1008,6 hPa 0,0 l/m 8,0 km/h (2 Bft) SO 135 0 min 0,0 UV-I 0 W/m 1,4 C 2,4 C 16,1 km/h (3 Bft) 100,00 %
15.11.2019 01:05 3,9 C 83 % 1008,6 hPa 0,0 l/m 11,3 km/h (2 Bft) SO 135 0 min 0,0 UV-I 0 W/m 1,3 C -0,1 C 16,1 km/h (3 Bft) 100,00 %
15.11.2019 01:00 3,9 C 83 % 1008,7 hPa 0,0 l/m 11,3 km/h (2 Bft) SO 135 0 min 0,0 UV-I 0 W/m 1,3 C -0,1 C 19,3 km/h (3 Bft) 100,00 %
15.11.2019 00:55 3,7 C 85 % 1008,7 hPa 0,0 l/m 11,3 km/h (2 Bft) SO 135 0 min 0,0 UV-I 0 W/m 1,4 C -0,3 C 17,7 km/h (3 Bft) 100,00 %
15.11.2019 00:50 3,4 C 85 % 1008,6 hPa 0,0 l/m 8,0 km/h (2 Bft) SO 135 0 min 0,0 UV-I 0 W/m 1,1 C 1,9 C 14,5 km/h (3 Bft) 100,00 %
15.11.2019 00:45 3,5 C 85 % 1008,7 hPa 0,0 l/m 8,0 km/h (2 Bft) SO 135 0 min 0,0 UV-I 0 W/m 1,2 C 2,0 C 14,5 km/h (3 Bft) 100,00 %
15.11.2019 00:40 3,7 C 84 % 1008,7 hPa 0,0 l/m 8,0 km/h (2 Bft) SO 135 0 min 0,0 UV-I 0 W/m 1,3 C 2,2 C 14,5 km/h (3 Bft) 100,00 %
15.11.2019 00:35 3,8 C 83 % 1008,8 hPa 0,0 l/m 9,7 km/h (2 Bft) SO 135 0 min 0,0 UV-I 0 W/m 1,2 C 1,0 C 16,1 km/h (3 Bft) 100,00 %
15.11.2019 00:30 3,7 C 84 % 1008,9 hPa 0,0 l/m 8,0 km/h (2 Bft) S 180 0 min 0,0 UV-I 0 W/m 1,3 C 2,2 C 19,3 km/h (3 Bft) 100,00 %
15.11.2019 00:25 3,6 C 84 % 1008,9 hPa 0,0 l/m 9,7 km/h (2 Bft) SO 135 0 min 0,0 UV-I 0 W/m 1,2 C 0,8 C 19,3 km/h (3 Bft) 100,00 %
15.11.2019 00:20 3,6 C 84 % 1008,7 hPa 0,0 l/m 8,0 km/h (2 Bft) SO 135 0 min 0,0 UV-I 0 W/m 1,2 C 2,1 C 16,1 km/h (3 Bft) 100,00 %
15.11.2019 00:15 3,6 C 84 % 1008,7 hPa 0,0 l/m 8,0 km/h (2 Bft) SO 135 0 min 0,0 UV-I 0 W/m 1,2 C 2,1 C 14,5 km/h (3 Bft) 100,00 %
15.11.2019 00:10 3,5 C 84 % 1008,7 hPa 0,0 l/m 9,7 km/h (2 Bft) SO 135 0 min 0,0 UV-I 0 W/m 1,1 C 0,6 C 17,7 km/h (3 Bft) 100,00 %
15.11.2019 00:05 3,3 C 85 % 1008,8 hPa 0,0 l/m 8,0 km/h (2 Bft) SO 135 0 min 0,0 UV-I 0 W/m 1,0 C 1,8 C 16,1 km/h (3 Bft) 100,00 %
15.11.2019 00:00 3,6 C 84 % 1008,8 hPa 0,0 l/m 8,0 km/h (2 Bft) S-SO 157 0 min 0,0 UV-I 0 W/m 1,2 C 2,1 C 14,5 km/h (3 Bft) 100,00 %
_ Min-Zeit 00:05 00:35 05:30 - 01:20 - - - - - 00:05 03:35 01:25 00:00
Minimum _ 3,3 C 83 % 1006,8 hPa - 6,4 km/h (2 Bft) - - - - - 1,0 C -2,9 C 12,9 km/h (3 Bft) 100,00 %
_ Max-Zeit 03:10 04:55 00:25 00:00 03:35 - - 00:00 00:00 00:00 05:30 01:25 05:30 00:00
Maximum _ 4,5 C 93 % 1008,9 hPa 0,0 l/m 16,1 km/h
O-SO (3 Bft)
- - 0 min 0,0 UV-I 0 W/m 3,3 C 4,0 C 35,4 km/h
S-SO (5 Bft)
100,00 %
Durchschnitt _ 3,7 C 88 % 1008,1 hPa #0,0 l/m 10,3 km/h (2 Bft) SO - #0 min. 0,0 UV-I 0 W/m 1,9 C 0,6 C 19,2 km/h (3 Bft) 100,00 %